Tracking 29892 objects as of 21-Nov-2024
HD Live streaming from Space Station
objects crossing your sky now

MOLNIYA 1-86

Track MOLNIYA 1-86 now!
10-day predictions
MOLNIYA 1-86 is classified as:


NORAD ID: 22671
Int'l Code: 1993-035A
Perigee: 442.2 km
Apogee: 13,485.1 km
Inclination: 63.0 °
Period: 255.4 minutes
Semi major axis: 13334 km
RCS: 9.1305 m2 (large)
Launch date: May 26, 1993
Source: Commonwealth of Independent States (former USSR) (CIS)
Launch site: PLESETSK MISSILE AND SPACE COMPLEX (PKMTR)
Your satellite tracking list
Your tracking list is empty




NASA's NSSDC Master Catalog

Two Line Element Set (TLE):
1 22671U 93035A   24325.83780057  .00000608  00000-0  52424-3 0  9996
2 22671  63.0284  78.1896 4890618  21.9762 353.2980  5.63809682402266
Source of the keplerian elements: AFSPC